Opa Locka, FL

7:05 AM EST on January 18, 2018 (GMT -0500)
Opa Locka

Weather History for KOPF - September, 2013

Change the Weather History Date:

Sunday, September 22, 2013

  Actual Average Record
Temperature  
Mean Temperature 83 °F -  
Max Temperature 91 °F 89 °F 97 °F (1990)
Min Temperature 77 °F 74 °F 69 °F (1953)
Cooling Degree Days 18    
Growing Degree Days 33 (Base 50)    
Moisture  
Dew Point 74 °F    
Average Humidity 76    
Maximum Humidity 93    
Minimum Humidity 55    
Precipitation  
Precipitation 0.39 in - - ()
Sea Level Pressure  
Sea Level Pressure 29.83 in    
Wind  
Wind Speed 5 mph (SSW)    
Max Wind Speed 13 mph    
Max Gust Speed 21 mph    
Visibility 10 miles    
Events Rain    
Averages and records for this station are not official NWS values.
T = Trace of Precipitation, MM = Missing Value Source: NWS Daily Summary

Daily Weather History Graph

Daily Weather History Graph

Search for Another Location

Airport or City:

Trip Planner

Search our weather history database for the weather conditions in past years. The results will help you decide how hot, cold, wet, or windy it might be!

Date:

Astronomy

Sep. 22, 2013 Rise Set
Actual Time 7:09 AM EDT 7:17 PM EDT
Civil Twilight 6:46 AM EDT 7:40 PM EDT
Nautical Twilight 6:20 AM EDT 8:06 PM EDT
Astronomical Twilight 5:53 AM EDT 8:33 PM EDT
Moon 9:30 PM EDT (9/22) 10:05 AM EDT (9/22)
Length of Visible Light 12h 53m
Length of Day
12h 07m
Waning Gibbous, 89% of the Moon is Illuminated
Sep 22
Waning Gibbous
Sep 26
Last Quarter
Oct 4
New
Oct 11
First Quarter
Oct 18
Full

Hourly Weather History & Observations

Time (EDT) Temp. Heat Index Dew Point Humidity Pressure Visibility Wind Dir Wind Speed Gust Speed Precip Events Conditions
12:53 AM 80.1 °F 85.1 °F 75.0 °F 85% 29.84 in 10.0 mi SSE 4.6 mph - N/A   Overcast
1:53 AM 79.0 °F - 73.9 °F 84% 29.83 in 10.0 mi South 4.6 mph - N/A   Scattered Clouds
2:53 AM 77.0 °F - 72.0 °F 84% 29.81 in 10.0 mi SSE 3.5 mph - N/A   Clear
3:53 AM 77.0 °F - 73.0 °F 88% 29.80 in 10.0 mi Calm Calm - N/A   Partly Cloudy
4:25 AM 77.0 °F - 73.4 °F 89% 29.80 in 10.0 mi South 3.5 mph - N/A   Mostly Cloudy
4:35 AM 77.0 °F - 73.4 °F 89% 29.80 in 10.0 mi South 3.5 mph - N/A   Mostly Cloudy
4:53 AM 78.1 °F - 73.9 °F 87% 29.81 in 10.0 mi Calm Calm - N/A   Mostly Cloudy
5:53 AM 77.0 °F - 73.9 °F 90% 29.81 in 10.0 mi Calm Calm - N/A   Clear
6:53 AM 77.0 °F - 73.9 °F 90% 29.83 in 10.0 mi Calm Calm - N/A   Clear
7:53 AM 78.1 °F - 75.9 °F 93% 29.84 in 10.0 mi South 4.6 mph - N/A   Clear
8:53 AM 82.0 °F 88.6 °F 75.0 °F 79% 29.85 in 10.0 mi SSW 5.8 mph - N/A   Partly Cloudy
9:53 AM 84.0 °F 91.9 °F 75.0 °F 74% 29.86 in 10.0 mi South 8.1 mph - N/A   Partly Cloudy
10:53 AM 87.1 °F 95.4 °F 73.9 °F 65% 29.86 in 10.0 mi South 11.5 mph - N/A   Mostly Cloudy
11:11 AM 86.0 °F 93.4 °F 73.4 °F 66% 29.86 in 10.0 mi South 8.1 mph - N/A   Mostly Cloudy
11:21 AM 87.8 °F 93.8 °F 71.6 °F 58% 29.85 in 10.0 mi SSW 11.5 mph - N/A   Mostly Cloudy
11:53 AM 86.0 °F 92.2 °F 72.0 °F 63% 29.85 in 10.0 mi SSW 11.5 mph - N/A   Scattered Clouds
12:53 PM 89.1 °F 97.0 °F 73.0 °F 59% 29.84 in 10.0 mi SW 8.1 mph - N/A   Scattered Clouds
1:53 PM 89.1 °F 95.0 °F 71.1 °F 55% 29.82 in 10.0 mi South 6.9 mph - N/A   Mostly Cloudy
2:53 PM 87.1 °F 95.4 °F 73.9 °F 65% 29.81 in 10.0 mi South 9.2 mph - N/A   Overcast
3:10 PM 80.6 °F 86.2 °F 75.2 °F 84% 29.80 in 2.5 mi ESE 6.9 mph 20.7 mph 0.26 in Rain Heavy Rain
3:18 PM 82.4 °F 89.5 °F 75.2 °F 79% 29.80 in 7.0 mi SW 12.7 mph - 0.30 in Rain Light Rain
3:53 PM 86.0 °F 93.8 °F 73.9 °F 67% 29.80 in 10.0 mi SSE 4.6 mph - 0.39 in   Mostly Cloudy
4:53 PM 87.1 °F 97.3 °F 75.9 °F 69% 29.78 in 10.0 mi East 6.9 mph - N/A   Partly Cloudy
5:53 PM 87.1 °F 92.0 °F 70.0 °F 57% 29.80 in 10.0 mi West 6.9 mph - N/A   Clear
6:53 PM 86.0 °F 93.0 °F 73.0 °F 65% 29.82 in 10.0 mi West 9.2 mph - N/A   Clear
7:53 PM 84.0 °F 90.2 °F 73.0 °F 69% 29.83 in 10.0 mi West 4.6 mph - N/A   Clear
8:53 PM 82.9 °F 90.2 °F 75.0 °F 77% 29.86 in 10.0 mi WSW 4.6 mph - N/A   Clear
9:53 PM 82.9 °F 90.2 °F 75.0 °F 77% 29.87 in 10.0 mi West 6.9 mph - N/A   Clear
10:53 PM 82.0 °F 88.6 °F 75.0 °F 79% 29.89 in 10.0 mi SW 3.5 mph - N/A   Clear
11:53 PM 81.0 °F 86.7 °F 75.0 °F 82% 29.89 in 10.0 mi SW 3.5 mph - N/A   Clear